Lid_Strength_Index
0 1 1 1 1 1 0 0 0 0 0 0 -0 0 1 3 3 2 1 1 -1 -0 0 1 1 1 2 2 2 2 2 2 2 2 2 2 2 2 2 2 3 3 3
1 1 1 1 1 1 0 0 0 0 0 0 0 0 0 3 3 2 2 1 0 0 1 2 2 2 2 2 2 2 2 2 2 2 3 2 2 2 2 3 3 3 3
1 1 1 2 1 0 -0 -0 0 0 0 -0 -0 -0 0 3 3 3 3 3 2 2 2 2 3 2 2 2 2 3 2 3 2 3 3 2 3 3 3 3 3 3 3
1 1 1 1 0 0 -0 0 0 0 0 0 0 0 1 3 3 4 4 5 4 3 3 4 4 3 3 3 2 3 3 3 3 3 3 3 3 3 3 3 4 3 3
1 1 1 1 0 0 -0 0 1 1 1 1 1 1 1 3 4 4 5 5 5 5 4 4 5 5 3 3 3 3 3 3 4 3 3 4 3 4 4 4 4 4 4
0 1 1 1 1 1 0 1 1 1 1 1 2 3 2 3 4 4 4 5 6 6 6 6 6 6 5 3 3 3 3 3 4 4 5 4 5 5 4 5 5 5 4
1 1 1 2 2 2 1 1 1 1 2 2 4 4 5 5 5 5 5 5 6 7 7 8 8 7 6 5 4 3 3 4 5 5 5 5 5 5 5 5 5 5 5
1 1 1 2 2 2 2 1 1 2 2 3 4 4 5 5 7 6 6 6 6 8 9 9 9 9 7 7 6 5 4 4 5 5 5 5 6 6 5 5 5 5 5
2 1 1 1 2 2 1 0 1 2 2 3 3 3 6 6 7 8 8 7 7 8 9 10 11 11 10 9 8 7 6 5 4 5 5 6 6 6 6 6 6 6 5
3 2 2 1 1 1 0 0 1 1 1 2 3 3 3 4 6 7 9 9 8 8 9 10 11 11 12 11 10 9 8 6 5 5 6 6 6 6 6 6 6 6 6
3 3 2 2 1 0 0 -0 1 1 1 1 2 3 3 4 6 6 5 8 10 8 8 10 10 12 13 11 12 10 8 7 7 7 7 7 7 7 7 7 7 7 6
3 3 3 2 2 1 0 0 0 1 1 1 1 1 3 5 6 6 8 5 8 9 10 10 11 12 12 12 12 10 8 7 7 8 8 8 8 7 7 7 7 7 7
3 3 3 3 2 2 1 1 1 1 1 1 1 1 1 2 3 7 6 6 9 9 12 11 11 11 12 13 13 11 10 8 8 8 8 8 8 8 8 8 8 8 8
3 3 3 3 2 2 2 1 1 1 1 1 1 1 1 2 2 4 5 5 8 9 11 10 11 12 12 13 13 12 11 9 8 7 8 8 8 8 8 8 8 8 8
2 2 3 3 2 2 2 2 2 2 1 2 2 2 2 2 2 3 3 4 5 6 6 11 12 14 13 13 13 12 12 10 8 7 8 8 8 8 8 8 8 9 8
2 3 3 3 2 2 2 2 1 2 2 2 2 2 2 2 2 2 3 4 4 5 6 12 13 14 13 13 12 12 12 11 9 8 8 7 8 8 8 8 8 9 9
2 3 3 3 2 2 2 2 2 2 3 3 2 3 3 2 3 3 3 3 5 5 7 13 14 14 14 14 13 12 13 12 11 9 8 8 8 8 8 9 8 9 9
2 2 3 3 3 2 2 3 3 3 3 3 3 3 3 3 3 3 4 5 6 7 8 11 15 15 15 13 14 13 13 12 12 11 9 8 8 9 9 8 9 9 9
3 3 3 3 3 3 3 3 2 2 2 3 3 3 3 3 5 4 7 8 9 11 11 12 14 14 14 14 13 13 13 13 12 12 10 9 9 9 9 9 8 8 9
3 3 3 3 3 3 2 2 2 2 2 3 4 6 7 7 7 7 8 9 11 12 12 13 14 14 15 14 13 14 15 13 13 13 12 11 11 10 9 8 8 8 8
7 6 5 5 6 7 8 6 5 6 6 7 8 9 9 11 10 9 10 11 11 12 12 13 14 14 14 15 14 13 13 14 14 12 12 13 12 11 10 9 9 9 8
10 10 10 10 10 10 10 10 8 8 9 9 10 11 11 13 11 9 9 9 9 11 12 12 12 13 13 13 13 13 14 15 15 12 13 13 13 12 11 10 10 9 8
11 11 11 11 11 11 10 10 10 9 10 10 11 11 12 12 11 10 9 9 9 9 10 10 12 12 12 12 12 13 13 13 12 14 13 13 12 12 11 11 10 10 9
12 12 12 12 12 12 11 10 11 10 11 11 11 11 11 11 11 11 11 12 12 12 11 12 11 12 11 11 11 12 12 13 14 14 13 13 14 13 13 12 11 10 9
13 13 13 14 14 14 11 10 12 13 13 13 13 12 11 11 11 11 12 13 13 13 11 10 10 10 10 10 11 12 13 14 14 14 14 13 14 14 13 13 12 11 10
14 14 15 15 15 14 10 11 13 14 14 13 13 13 12 12 11 10 12 13 13 13 12 12 12 11 10 10 11 11 12 13 15 14 14 13 15 14 14 14 14 13 12